Weather History for Warroad, MN

Change the Weather History Date:

Sunday, February 24, 2013

  Actual Average Record
Temperature  
Mean Temperature 18 °F -  
Max Temperature 26 °F 25 °F 50 °F (1976)
Min Temperature 10 °F 1 °F -40 °F (1955)
Degree Days  
Heating Degree Days 47    
Moisture  
Dew Point 12 °F    
Average Humidity 78    
Maximum Humidity 93    
Minimum Humidity 58    
Precipitation  
Precipitation 0.00 in - - ()
Sea Level Pressure  
Sea Level Pressure 29.98 in    
Wind  
Wind Speed 1 mph (SSW)    
Max Wind Speed 8 mph    
Max Gust Speed -    
Visibility 6 miles    
Events Fog , Snow    
Averages and records for this station are not official NWS values.
T = Trace of Precipitation, MM = Missing Value Source: NWS Daily Summary

Daily Weather History Graph

Daily Weather History Graph

Search for Another Location

Airport:

Trip Planner

Search our weather history database for the weather conditions in past years. The results will help you decide how hot, cold, wet, or windy it might be!

Date:

Astronomy

Feb. 24, 2013 Rise Set
Actual Time 7:12 AM CST 5:57 PM CST
Civil Twilight 6:40 AM CST 6:29 PM CST
Nautical Twilight 6:04 AM CST 7:05 PM CST
Astronomical Twilight 5:27 AM CST 7:42 PM CST
Moon 5:09 PM CST (2/24) 6:12 AM CST (2/24)
Length of Visible Light 11h 48m
Length of Day
10h 44m
Waxing Gibbous, 99% of the Moon is Illuminated
Feb 24
Waxing Gibbous
Feb 25
Full
Mar 4
Last Quarter
Mar 11
New
Mar 19
First Quarter

Hourly Weather History & Observations

Time (CST) Temp. Windchill Dew Point Humidity Pressure Visibility Wind Dir Wind Speed Gust Speed Precip Events Conditions
12:14 AM 19.4 °F - 15.8 °F 86% 29.93 in 7.0 mi Calm Calm - N/A   Overcast
12:34 AM 17.6 °F - 14.0 °F 86% 29.93 in 0.8 mi Calm Calm - N/A   Overcast
12:54 AM 17.6 °F 12.3 °F 12.2 °F 79% 29.94 in 0.5 mi West 3.5 mph - N/A Fog Light Freezing Fog
1:14 AM 17.6 °F - 12.2 °F 79% 29.94 in 0.5 mi Calm Calm - N/A Fog Light Freezing Fog
1:34 AM 17.6 °F - 12.2 °F 79% 29.95 in 0.5 mi Calm Calm - N/A Fog Light Freezing Fog
1:54 AM 17.6 °F - 12.2 °F 79% 29.95 in 0.5 mi Calm Calm - N/A Fog Light Freezing Fog
2:14 AM 17.6 °F - 12.2 °F 79% 29.95 in 0.5 mi Calm Calm - N/A Fog Light Freezing Fog
2:34 AM 15.8 °F - 12.2 °F 86% 29.95 in 0.5 mi Calm Calm - N/A Fog Light Freezing Fog
2:54 AM 15.8 °F - 12.2 °F 86% 29.95 in 0.5 mi Calm Calm - N/A Fog Light Freezing Fog
3:14 AM 15.8 °F - 10.4 °F 79% 29.94 in 0.5 mi Calm Calm - N/A Fog Light Freezing Fog
3:34 AM 15.8 °F - 10.4 °F 79% 29.94 in 0.5 mi Calm Calm - N/A Fog Light Freezing Fog
3:54 AM 14.0 °F - 10.4 °F 86% 29.94 in 0.5 mi Calm Calm - N/A Fog Light Freezing Fog
4:13 AM 14.0 °F - 10.4 °F 86% 29.95 in 0.5 mi Calm Calm - N/A Fog Light Freezing Fog
4:34 AM 12.2 °F - 8.6 °F 85% 29.95 in 0.5 mi Calm Calm - N/A Fog Light Freezing Fog
4:54 AM 12.2 °F - 8.6 °F 85% 29.95 in 1.0 mi Calm Calm - N/A   Overcast
5:14 AM 12.2 °F - 8.6 °F 85% 29.96 in 1.2 mi Calm Calm - N/A   Overcast
5:34 AM 12.2 °F - 8.6 °F 85% 29.96 in 0.8 mi Calm Calm - N/A   Overcast
5:54 AM 12.2 °F - 8.6 °F 85% 29.97 in 0.8 mi Calm Calm - N/A   Overcast
6:14 AM 12.2 °F - 8.6 °F 85% 29.98 in 0.8 mi Calm Calm - N/A   Overcast
6:34 AM 12.2 °F - 8.6 °F 85% 29.98 in 1.5 mi Calm Calm - N/A   Overcast
6:54 AM 12.2 °F - 8.6 °F 85% 29.98 in 0.8 mi Calm Calm - N/A   Overcast
7:14 AM 12.2 °F - 8.6 °F 85% 29.98 in 0.8 mi Calm Calm - N/A   Overcast
7:34 AM 12.2 °F - 8.6 °F 85% 29.98 in 0.5 mi Calm Calm - N/A Fog Light Freezing Fog
7:54 AM 10.4 °F - 8.6 °F 92% 29.99 in 0.2 mi Calm Calm - N/A Fog Light Freezing Fog
8:14 AM 10.4 °F - 6.8 °F 85% 29.98 in 0.2 mi Calm Calm - N/A Fog Light Freezing Fog
8:34 AM 10.4 °F - 6.8 °F 85% 29.98 in 0.2 mi Calm Calm - N/A Fog Light Freezing Fog
8:54 AM 10.4 °F - 6.8 °F 85% 29.98 in 0.5 mi Calm Calm - N/A Fog Light Freezing Fog
9:14 AM 10.4 °F - 6.8 °F 85% 29.99 in 4.0 mi Calm Calm - N/A   Overcast
9:34 AM 12.2 °F - 8.6 °F 85% 30.00 in 7.0 mi Calm Calm - N/A Snow Light Snow
9:54 AM 12.2 °F - 8.6 °F 85% 30.00 in 10.0 mi Calm Calm - N/A   Clear
10:14 AM 12.2 °F - 8.6 °F 85% 30.01 in 7.0 mi Calm Calm - N/A   Clear
10:34 AM 12.2 °F - 8.6 °F 85% 30.01 in 10.0 mi Calm Calm - N/A   Clear
10:54 AM 15.8 °F - 10.4 °F 79% 30.01 in 10.0 mi Calm Calm - N/A   Clear
11:14 AM 15.8 °F - 12.2 °F 86% 30.00 in 10.0 mi Calm Calm - N/A   Clear
11:33 AM 17.6 °F - 12.2 °F 79% 30.01 in 10.0 mi Calm Calm - N/A   Clear
11:54 AM 17.6 °F - 15.8 °F 93% 30.01 in 10.0 mi Calm Calm - N/A   Clear
12:14 PM 21.2 °F - 17.6 °F 86% 30.00 in 10.0 mi Calm Calm - N/A   Clear
12:34 PM 21.2 °F - 17.6 °F 86% 30.00 in 10.0 mi Calm Calm - N/A   Clear
12:54 PM 23.0 °F - 19.4 °F 86% 30.01 in 10.0 mi Calm Calm - N/A   Clear
1:14 PM 24.8 °F - 19.4 °F 80% 30.00 in 10.0 mi Calm Calm - N/A   Clear
1:34 PM 26.6 °F - 19.4 °F 74% 30.00 in 10.0 mi Calm Calm - N/A   Clear
1:54 PM 23.0 °F 18.4 °F 17.6 °F 80% 29.99 in 10.0 mi East 3.5 mph - N/A   Clear
2:14 PM 23.0 °F 18.4 °F 17.6 °F 80% 29.99 in 10.0 mi East 3.5 mph - N/A   Clear
2:34 PM 23.0 °F 18.4 °F 17.6 °F 80% 29.99 in 10.0 mi East 3.5 mph - N/A   Clear
2:54 PM 24.8 °F - 17.6 °F 74% 29.99 in 10.0 mi Calm Calm - N/A   Clear
3:13 PM 24.8 °F - 17.6 °F 74% 29.99 in 10.0 mi Calm Calm - N/A   Clear
3:34 PM 24.8 °F - 17.6 °F 74% 29.98 in 10.0 mi Calm Calm - N/A   Clear
3:54 PM 24.8 °F - 17.6 °F 74% 29.98 in 10.0 mi Calm Calm - N/A   Clear
4:13 PM 24.8 °F - 15.8 °F 69% 29.98 in 10.0 mi Calm Calm - N/A   Clear
4:34 PM 24.8 °F - 14.0 °F 64% 29.98 in 10.0 mi Calm Calm - N/A   Clear
4:54 PM 21.2 °F - 14.0 °F 74% 29.98 in 10.0 mi Calm Calm - N/A   Clear
5:13 PM 19.4 °F - 14.0 °F 80% 29.98 in 10.0 mi Calm Calm - N/A   Clear
5:34 PM 19.4 °F - 12.2 °F 74% 29.98 in 10.0 mi Calm Calm - N/A   Clear
5:54 PM 19.4 °F - 12.2 °F 74% 29.98 in 10.0 mi Calm Calm - N/A   Clear
6:13 PM 19.4 °F - 12.2 °F 74% 29.99 in 10.0 mi Calm Calm - N/A   Clear
6:34 PM 21.2 °F - 8.6 °F 58% 29.99 in 10.0 mi Calm Calm - N/A   Clear
6:54 PM 21.2 °F 16.4 °F 8.6 °F 58% 29.99 in 10.0 mi SW 3.5 mph - N/A   Clear
7:14 PM 21.2 °F 16.4 °F 8.6 °F 58% 30.00 in 10.0 mi South 3.5 mph - N/A   Clear
7:34 PM 21.2 °F 14.9 °F 8.6 °F 58% 30.00 in 10.0 mi SSW 4.6 mph - N/A   Clear
7:53 PM 21.2 °F 14.9 °F 8.6 °F 58% 30.00 in 10.0 mi SSW 4.6 mph - N/A   Clear
8:14 PM 19.4 °F 14.3 °F 6.8 °F 58% 30.00 in 10.0 mi South 3.5 mph - N/A   Clear
8:34 PM 19.4 °F 14.3 °F 6.8 °F 58% 30.00 in 10.0 mi SSW 3.5 mph - N/A   Clear
8:53 PM 17.6 °F - 6.8 °F 63% 29.99 in 10.0 mi Calm Calm - N/A   Clear
9:14 PM 17.6 °F 12.3 °F 6.8 °F 63% 29.99 in 10.0 mi SSW 3.5 mph - N/A   Clear
9:34 PM 15.8 °F 10.2 °F 6.8 °F 68% 29.98 in 10.0 mi SSW 3.5 mph - N/A   Clear
9:54 PM 15.8 °F 7.2 °F 6.8 °F 68% 29.99 in 10.0 mi SW 5.8 mph - N/A   Clear
10:14 PM 17.6 °F 7.3 °F 8.6 °F 68% 29.99 in 10.0 mi SW 8.1 mph - N/A   Scattered Clouds
10:34 PM 17.6 °F 9.3 °F 10.4 °F 73% 29.99 in 10.0 mi SW 5.8 mph - N/A   Mostly Cloudy
10:53 PM 19.4 °F 11.5 °F 12.2 °F 74% 29.98 in 10.0 mi SSW 5.8 mph - N/A   Overcast
11:14 PM 19.4 °F 12.8 °F 12.2 °F 74% 29.98 in 10.0 mi SSW 4.6 mph - N/A   Overcast
11:34 PM 19.4 °F 14.3 °F 12.2 °F 74% 29.98 in 10.0 mi SW 3.5 mph - N/A   Overcast
11:54 PM 21.2 °F 14.9 °F 15.8 °F 80% 29.97 in 10.0 mi SW 4.6 mph - N/A   Overcast